Regional Weather Roundup
Issued by NWS

Home | Current Version | Previous Version | Text Only | Print | Product List | Glossary On
Versions: 1 2 3 4 5 6 7 8 9 10 11 12 13 14 15 16 17 18 19 20 21 22 23 24 25 26 27 28 29 30 31 32 33 34 35 36 37 38 39 40 41 42 43 44 45 46 47 48 49 50
026
ASUS45 KBOU 211810
RWRCO

WEATHER ROUNDUP FOR COLORADO
NATIONAL WEATHER SERVICE DENVER/BOULDER CO
1200 PM MDT SAT SEP 21 2019

NOTE: "FAIR" INDICATES FEW OR NO CLOUDS BELOW 12000 FEET WITH NO
SIGNIFICANT WEATHER AND/OR OBSTRUCTIONS TO VISIBILITY.

COZ001>005-013-030-031-211900-
...NORTHWEST COLORADO...

CITY           SKY/WX    TMP DP  RH WIND       PRES   REMARKS
CRAIG          FAIR      59  27  29 CALM      30.15F
HAYDEN         FAIR      54  27  35 W5        30.17F
MEEKER         FAIR      54  26  34 CALM      30.15F
RANGELY        FAIR      60  29  30 W6        30.14F
RABBIT EARS PA FAIR      43  23  45 MISG      30.28S
STEAMBOAT SPGS FAIR      53  26  34 N3        30.17F
WALDEN         NOT AVBL
$$

COZ006>008-011-211900-
...WEST CENTRAL VALLEYS...

CITY           SKY/WX    TMP DP  RH WIND       PRES   REMARKS
GRAND JUNCTION FAIR      65  27  23 SE7       30.10F
MONTROSE       FAIR      62  26  25 N7        30.13F
EAGLE          FAIR      60  21  22 VRB3      30.13F
RIFLE          FAIR      62  24  23 VRB3      30.11F
DELTA          FAIR      65  27  23 CALM      30.11F
NUCLA          FAIR      63  19  19 W3        30.16F
$$

COZ017>023-064>068-211900-
...SOUTHWEST COLORADO...

CITY           SKY/WX    TMP DP  RH WIND       PRES   REMARKS
DURANGO        FAIR      65  31  28 VRB6      30.18F
CORTEZ         FAIR      69  25  19 SW16      30.13F
PAGOSA SPRINGS FAIR      62  23  23 SW8       30.24S
TELLURIDE      FAIR      57  14  18 E5        30.25F
WOLF CREEK PAS FAIR      39  19  45 S25G38    30.43R
$$

COZ009-010-012-014-032>034-037-058>063-211900-
...CENTRAL COLORADO...

CITY           SKY/WX    TMP DP  RH WIND       PRES   REMARKS
ASPEN          FAIR      61  18  18 N9G17     30.14F
BUENA VISTA    FAIR      65  11  12 W6        30.14F
COPPER MTN     FAIR      50  12  22 SW5       30.35F
BERTHOUD PASS  FAIR      39  25  56 SW7G21    30.38R
COTTONWOOD PAS FAIR      55   5  13 SW14G21   30.26S
GUNNISON       FAIR      59  18  20 CALM      30.18F
GRANBY         FAIR      56  21  25 NW3       30.20S
KREMMLING      FAIR      59  23  25 SW9       30.16F
LEADVILLE      FAIR      55   7  14 S12G26    30.22F
MONARCH PASS   FAIR      45  10  24 MISG      30.47F
SALIDA         FAIR      68  14  12 SE13G18   30.20F
SUNLIGHT       FAIR      45  19  36 NW3       30.33S
WILKERSON PASS FAIR      52  12  20 SW12G18   30.36R
$$

COZ069>075-211900-
...SAN LUIS VALLEY/SANGRE DE CRISTO MOUNTAINS...

CITY           SKY/WX    TMP DP  RH WIND       PRES   REMARKS
ALAMOSA        FAIR      67  14  13 S12G21    30.16F
DEL NORTE      FAIR      63  23  21 CALM      30.19S
LA VETA PASS   FAIR      54  19  26 SW9G20    30.31S
SAGUACHE       FAIR      64  23  20 CALM      30.18F
$$

COZ035-036-038>040-211900-
...NORTHERN COLORADO FRONT RANGE...

CITY           SKY/WX    TMP DP  RH WIND       PRES   REMARKS
DENVER INTL AP FAIR      75  27  17 S14G25    30.01F
AURORA         MOSUNNY   75  29  18 SE8       30.01F
FRONT RANGE AP MOSUNNY   75  28  17 SE16G25   30.03F
ERIE MUNI ARPT FAIR      74  22  14 SE8       30.05F
BOULDER MUN AP FAIR      73  30  20 E7        30.00F
CENTENNIAL     FAIR      74  25  16 SW6G21    30.01F
BROOMFIELD     MOSUNNY   70  27  19 S7        30.03F
FORT COLLINS   FAIR      74  32  21 SE14G21   30.01F
LONGMONT       FAIR      77  27  15 SE6       30.01F
$$

COZ041-046-047-076>085-087-088-211900-
...PIKES PEAK/PALMER DIVIDE AND SOUTHERN FOOTHILLS...

CITY           SKY/WX    TMP DP  RH WIND       PRES   REMARKS
COLO. SPRINGS  FAIR      71  30  21 SE13G23   30.08F
A. F. ACADEMY  FAIR      69  29  22 S9        30.07F
SCHRIEVER AFB  NOT AVBL
CHEYENNE MTN   FAIR      67  29  23 SE15G24   30.06F
ELLICOTT       FAIR      70  30  22 SE9       30.10S
FALCON         FAIR      69  25  19 S13G21    30.12F
FORT CARSON    FAIR      72  29  20 SE10      30.05F
LIMON          FAIR      72  25  17 SE17      30.05F
MONUMENT HILL  FAIR      66  28  24 S18G24    30.12F
CANON CITY     FAIR      73  32  21 S3        30.03F
WALSENBURG     NOT AVBL
TRINIDAD       FAIR      81  20  10 SW15G23   30.04F
$$

COZ042>045-048>051-090-091-211900-
...NORTHEAST COLORADO...

CITY           SKY/WX    TMP DP  RH WIND       PRES   REMARKS
GREELEY ARPT   FAIR      71  35  26 SE12      30.02F
AKRON          FAIR      69  28  21 NE7       30.03S
BURLINGTON     FAIR      77  39  25 NE12G20   30.00F
WRAY           FAIR      77  28  16 N7G16     29.99F
YUMA           FAIR      72  10   9 N8        30.00F
STERLING       FAIR      70  34  26 CALM      29.99F
HOLYOKE        NOT AVBL
FORT MORGAN    FAIR      70  31  23 SE7       30.03S
$$

COZ086-089-092>099-211900-
...SOUTHEAST COLORADO...

CITY           SKY/WX    TMP DP  RH WIND       PRES   REMARKS
PUEBLO         FAIR      76  39  26 VRB3      29.99F
LA JUNTA       FAIR      81  38  21 E8        29.97F
LAMAR          FAIR      83  44  25 E13       29.94F
SPRINGFIELD      N/A     86  36  16 S20G30    29.96F
$$




USA.gov is the U.S. government's official web portal to all federal, state and local government web resources and services.